When you browse on this site, cookies collect data to enhance your experience and personalize the content and advertising you see.
Visit our Privacy Policy to learn more. By continuing to use the site, you agree to this use of cookies and data.
  • In Hungary
  • List of Countries
  • For 7 days
  • Water Temperature
  • Satellite Maps
  • Weather Map
  • News
  • Weather Widgets
  • user-avatar
    Login

    Hourly Weather Snizhne

    Today, 23 February, Saturday

    Time Temperature Precipitation Wind Pressure Humidity
    00:00 -11°C° 0.1 mm 4 mps 739 mmHg 84%
    01:00 -11°C° 0.1 mm 4 mps 740 mmHg 85%
    02:00 -12°C° 0.1 mm 4 mps 740 mmHg 85%
    03:00 -13°C° 0 mm 3 mps 740 mmHg 89%
    04:00 -13°C° 0.1 mm 3 mps 741 mmHg 89%
    05:00 -13°C° 0.1 mm 3 mps 741 mmHg 89%
    06:00 -14°C° 0.1 mm 4 mps 741 mmHg 89%
    07:00 -14°C° 0 mm 4 mps 742 mmHg 89%
    08:00 -14°C° 0 mm 4 mps 742 mmHg 88%
    09:00 -14°C° 0 mm 4 mps 743 mmHg 87%
    10:00 -13°C° 0 mm 5 mps 743 mmHg 86%
    11:00 -12°C° 0 mm 5 mps 744 mmHg 85%
    12:00 -12°C° 0 mm 5 mps 744 mmHg 84%
    13:00 -11°C° 0 mm 5 mps 744 mmHg 85%
    14:00 -11°C° 0 mm 5 mps 744 mmHg 85%
    15:00 -11°C° 0 mm 5 mps 744 mmHg 85%
    16:00 -11°C° 0 mm 5 mps 745 mmHg 86%
    17:00 -12°C° 0 mm 5 mps 745 mmHg 87%
    18:00 -11°C° 0 mm 4 mps 745 mmHg 88%
    19:00 -12°C° 0 mm 4 mps 745 mmHg 89%
    20:00 -14°C° 0 mm 4 mps 746 mmHg 90%
    21:00 -14°C° 0 mm 4 mps 746 mmHg 91%
    22:00 -15°C° 0 mm 4 mps 746 mmHg 91%
    23:00 -14°C° 0 mm 3 mps 746 mmHg 92%

    Tomorrow, 24 February, Sunday

    Time Temperature Precipitation Wind Pressure Humidity
    00:00 -14°C° 0 mm 3 mps 746 mmHg 92%
    01:00 -14°C° 0 mm 3 mps 746 mmHg 93%
    02:00 -14°C° 0 mm 3 mps 746 mmHg 94%
    03:00 -14°C° 0 mm 3 mps 746 mmHg 95%
    04:00 -15°C° 0 mm 3 mps 746 mmHg 95%
    05:00 -15°C° 0 mm 3 mps 746 mmHg 95%
    06:00 -15°C° 0 mm 3 mps 746 mmHg 95%
    07:00 -15°C° 0 mm 3 mps 747 mmHg 94%
    08:00 -15°C° 0 mm 3 mps 747 mmHg 94%
    09:00 -15°C° 0 mm 3 mps 747 mmHg 93%
    10:00 -14°C° 0 mm 3 mps 747 mmHg 91%
    11:00 -12°C° 0 mm 2 mps 747 mmHg 88%
    12:00 -9°C° 0 mm 2 mps 747 mmHg 86%
    13:00 -9°C° 0 mm 2 mps 747 mmHg 84%
    14:00 -8°C° 0 mm 2 mps 747 mmHg 83%
    15:00 -7°C° 0 mm 2 mps 747 mmHg 81%
    16:00 -8°C° 0 mm 2 mps 747 mmHg 80%
    17:00 -9°C° 0 mm 2 mps 746 mmHg 80%
    18:00 -10°C° 0 mm 1 mps 746 mmHg 79%
    19:00 -10°C° 0 mm 1 mps 746 mmHg 75%
    20:00 -10°C° 0 mm 1 mps 746 mmHg 72%
    21:00 -10°C° 0 mm 1 mps 746 mmHg 69%
    22:00 -10°C° 0 mm 1 mps 746 mmHg 69%
    23:00 -10°C° 0 mm 1 mps 746 mmHg 70%

    Day after tomorrow, 25 February, Monday

    Time Temperature Precipitation Wind Pressure Humidity
    00:00 -10°C° 0 mm 2 mps 746 mmHg 70%
    01:00 -10°C° 0 mm 2 mps 746 mmHg 72%
    02:00 -10°C° 0 mm 2 mps 746 mmHg 73%
    03:00 -12°C° 0 mm 3 mps 745 mmHg 74%
    04:00 -10°C° 0 mm 3 mps 745 mmHg 78%
    05:00 -10°C° 0 mm 3 mps 744 mmHg 81%
    06:00 -10°C° 0 mm 3 mps 744 mmHg 84%
    07:00 -9°C° 0 mm 3 mps 744 mmHg 85%
    08:00 -8°C° 0 mm 3 mps 744 mmHg 87%
    09:00 -8°C° 0 mm 4 mps 744 mmHg 88%
    10:00 -7°C° 0 mm 4 mps 743 mmHg 87%
    11:00 -5°C° 0 mm 5 mps 743 mmHg 87%
    12:00 -4°C° 0 mm 5 mps 743 mmHg 86%
    13:00 -2°C° 0 mm 5 mps 742 mmHg 85%
    14:00 -2°C° 0 mm 5 mps 741 mmHg 84%
    15:00 -1°C° 0 mm 5 mps 740 mmHg 84%
    16:00 -2°C° 0 mm 5 mps 740 mmHg 82%
    17:00 -2°C° 0 mm 5 mps 739 mmHg 81%
    18:00 -2°C° 0 mm 5 mps 738 mmHg 79%
    19:00 -2°C° 0 mm 5 mps 737 mmHg 80%
    20:00 -3°C° 0 mm 6 mps 737 mmHg 80%
    21:00 -3°C° 0 mm 6 mps 736 mmHg 81%
    22:00 -4°C° 0 mm 5 mps 735 mmHg 84%
    23:00 -4°C° 0 mm 5 mps 735 mmHg 86%

    26 February, Tuesday

    Time Temperature Precipitation Wind Pressure Humidity
    00:00 -5°C° 0 mm 5 mps 734 mmHg 89%
    01:00 -5°C° 0 mm 5 mps 734 mmHg 89%
    02:00 -5°C° 0 mm 4 mps 733 mmHg 88%
    03:00 -5°C° 0 mm 4 mps 732 mmHg 88%
    04:00 -5°C° 0.1 mm 4 mps 732 mmHg 89%
    05:00 -4°C° 0.1 mm 4 mps 732 mmHg 90%
    06:00 -4°C° 0.1 mm 4 mps 732 mmHg 91%
    07:00 -4°C° 0.1 mm 5 mps 732 mmHg 90%
    08:00 -4°C° 0.1 mm 5 mps 732 mmHg 90%
    09:00 -4°C° 0.1 mm 5 mps 732 mmHg 89%
    10:00 -2°C° 0 mm 5 mps 731 mmHg 89%
    11:00 -2°C° 0 mm 5 mps 731 mmHg 90%
    12:00 -2°C° 0 mm 5 mps 731 mmHg 90%
    13:00 -2°C° 0.1 mm 5 mps 730 mmHg 89%
    14:00 -2°C° 0.1 mm 5 mps 730 mmHg 88%
    15:00 -1°C° 0.1 mm 5 mps 730 mmHg 87%
    16:00 -2°C° 0.1 mm 4 mps 729 mmHg 87%
    17:00 -3°C° 0.1 mm 4 mps 729 mmHg 87%
    18:00 -2°C° 0.1 mm 3 mps 728 mmHg 87%
    19:00 -4°C° 0 mm 3 mps 728 mmHg 89%
    20:00 -4°C° 0 mm 3 mps 728 mmHg 90%
    21:00 -3°C° 0 mm 2 mps 727 mmHg 92%
    22:00 -4°C° 0.1 mm 3 mps 727 mmHg 93%
    23:00 -4°C° 0.1 mm 3 mps 727 mmHg 94%

    27 February, Wednesday

    Time Temperature Precipitation Wind Pressure Humidity
    00:00 -4°C° 0.1 mm 3 mps 726 mmHg 95%
    01:00 -4°C° 0.2 mm 3 mps 726 mmHg 95%
    02:00 -4°C° 0.2 mm 3 mps 726 mmHg 95%
    03:00 -4°C° 0.2 mm 3 mps 726 mmHg 95%
    04:00 -4°C° 0.1 mm 3 mps 726 mmHg 95%
    05:00 -5°C° 0.1 mm 3 mps 726 mmHg 95%
    06:00 -5°C° 0.1 mm 3 mps 726 mmHg 95%
    07:00 -5°C° 0 mm 3 mps 726 mmHg 93%
    08:00 -4°C° 0 mm 4 mps 727 mmHg 92%
    09:00 -4°C° 0 mm 4 mps 727 mmHg 90%
    10:00 -4°C° 0 mm 5 mps 727 mmHg 90%
    11:00 -4°C° 0 mm 5 mps 727 mmHg 90%
    12:00 -4°C° 0 mm 5 mps 728 mmHg 90%
    13:00 -2°C° 0.1 mm 5 mps 728 mmHg 89%
    14:00 -2°C° 0.1 mm 5 mps 728 mmHg 89%
    15:00 -2°C° 0.1 mm 5 mps 728 mmHg 88%
    16:00 -2°C° 0 mm 4 mps 728 mmHg 88%
    17:00 -3°C° 0 mm 4 mps 728 mmHg 88%
    18:00 -4°C° 0 mm 3 mps 728 mmHg 88%
    19:00 -4°C° 0 mm 3 mps 728 mmHg 89%
    20:00 -5°C° 0 mm 3 mps 728 mmHg 90%
    21:00 -5°C° 0 mm 3 mps 728 mmHg 91%
    22:00 -5°C° 0 mm 4 mps 728 mmHg 91%
    23:00 -5°C° 0 mm 4 mps 728 mmHg 91%

    28 February, Thursday

    Time Temperature Precipitation Wind Pressure Humidity
    00:00 -5°C° 0 mm 4 mps 728 mmHg 91%
    01:00 -5°C° 0 mm 4 mps 727 mmHg 90%
    02:00 -5°C° 0 mm 4 mps 727 mmHg 89%
    03:00 -5°C° 0 mm 4 mps 727 mmHg 88%
    04:00 -5°C° 0 mm 4 mps 726 mmHg 88%
    05:00 -7°C° 0 mm 4 mps 726 mmHg 88%
    06:00 -7°C° 0 mm 4 mps 725 mmHg 88%
    07:00 -6°C° 0 mm 5 mps 725 mmHg 88%
    08:00 -5°C° 0 mm 5 mps 725 mmHg 87%
    09:00 -5°C° 0 mm 6 mps 724 mmHg 87%
    10:00 -4°C° 0.1 mm 6 mps 724 mmHg 88%
    11:00 -3°C° 0.1 mm 6 mps 723 mmHg 89%
    12:00 -3°C° 0.1 mm 6 mps 723 mmHg 90%
    13:00 -3°C° 0.1 mm 6 mps 722 mmHg 90%
    14:00 -2°C° 0.1 mm 6 mps 722 mmHg 91%
    15:00 -2°C° 0.1 mm 6 mps 721 mmHg 91%
    16:00 -2°C° 0.1 mm 6 mps 721 mmHg 90%
    17:00 -1°C° 0.1 mm 5 mps 721 mmHg 89%
    18:00 -1°C° 0.1 mm 5 mps 721 mmHg 88%
    19:00 -1°C° 0.2 mm 5 mps 721 mmHg 89%
    20:00 -1°C° 0.2 mm 5 mps 721 mmHg 89%
    21:00 -1°C° 0.2 mm 5 mps 721 mmHg 90%
    22:00 -2°C° 0.1 mm 5 mps 721 mmHg 90%
    23:00 -2°C° 0.1 mm 5 mps 720 mmHg 91%
    Show more